Flag for Japan Weather past 2 weeks in Nagano, Japan

Now
65 °F

Mild.


Feels Like: 65 °F
Forecast: 57 / 78 °F
Wind: 2 mph from Southwest

Location: Nagano

Current Time: May 31, 2015 at 12:41:52 AM

Latest Report: May 31, 2015 at 12:00 AM


Visibility: N/A

Pressure: 29.59 "Hg

Humidity: 75%

Dew point: 57 °F

Location of NaganoLocation

Historic Weather in Nagano — Graph

°F

Nagano temperature yesterday

Maximum temperature yesterday: 85 °F (at 2:00 PM)
Minimum temperature yesterday: 63 °F (at 3:00 AM)
Average temperature yesterday: 71 °F

Past Weeks' High & Low Weather Summary

 TemperatureHumidityPressure
High85 °F (May 30, 2:00 PM)96% (May 16, 7:00 AM)30.02 "Hg (May 16, 7:00 AM)
Low47 °F (May 22, 5:00 AM)14% (May 17, 4:00 PM)29.41 "Hg (May 20, 1:00 PM)
Average67 °F57%29.77 "Hg
* Reported May 15 11:00 PM — May 30 11:00 PM, Nagano, Weather by CustomWeather, © 2015

Note: Actual official high and low records may vary slightly from our data, if they occured in-between our weather recording intervals... More about our weather records

Advertising

Nagano weather history for previous 24 hours

 ConditionsComfort  
Time TempWeatherWind HumidityBarometerVisibility
11:00 PM
Sat, May 30
66 °FMild.6 mph76%29.60 "HgN/A
10:00 PM67 °FMild.3 mph75%29.61 "HgN/A
9:00 PM67 °FSprinkles. Overcast.12 mph76%29.60 "Hg9 mi
8:00 PM68 °FMild.8 mph78%29.59 "HgN/A
7:00 PM69 °FMild.7 mph74%29.56 "HgN/A
6:00 PM70 °FMild.9 mph75%29.53 "HgN/A
5:00 PM73 °FMild.12 mph67%29.50 "HgN/A
4:00 PM78 °FWarm.9 mph53%29.47 "HgN/A
3:00 PM83 °FScattered clouds.10 mph45%29.44 "Hg12 mi
2:00 PM85 °FWarm.8 mph41%29.44 "HgN/A
1:00 PM83 °FPleasantly warm.10 mph39%29.47 "HgN/A
11:00 AM82 °FWarm.6 mph45%29.53 "HgN/A
10:00 AM79 °FWarm.5 mph49%29.57 "HgN/A
9:00 AM74 °FPassing clouds.3 mph54%29.61 "Hg16 mi
8:00 AM71 °FMild.2 mph62%29.63 "HgN/A
7:00 AM68 °FMild.3 mph68%29.66 "HgN/A
5:00 AM64 °FMild.6 mph74%29.68 "HgN/A
4:00 AM64 °FMild.7 mph72%29.68 "HgN/A
3:00 AM63 °FPassing clouds.3 mph76%29.68 "Hg12 mi
2:00 AM64 °FMild.6 mph71%29.69 "HgN/A
1:00 AM66 °FMild.5 mph66%29.68 "HgN/A
12:00 AM66 °FMild.9 mph65%29.71 "HgN/A
Weather by CustomWeather, © 2015

See weather overviewHow to use our weather pages